Pipestone, MN

2:17 AM CST on February 21, 2018 (GMT -0600)
Pipestone Municipal

Weather History for KPQN - May, 2013

Change the Weather History Date:

Tuesday, May 28, 2013

  Actual Average Record
Temperature  
Mean Temperature 62 °F -  
Max Temperature 68 °F 67 °F 95 °F (2006)
Min Temperature 55 °F 48 °F 42 °F (2005)
Degree Days  
Heating Degree Days 4    
Growing Degree Days 12 (Base 50)    
Moisture  
Dew Point 55 °F    
Average Humidity 87    
Maximum Humidity 100    
Minimum Humidity 68    
Precipitation  
Precipitation 0.00 in - - ()
Sea Level Pressure  
Sea Level Pressure 29.73 in    
Wind  
Wind Speed 6 mph (ESE)    
Max Wind Speed 13 mph    
Max Gust Speed 17 mph    
Visibility 6 miles    
Events Fog , Rain    
Averages and records for this station are not official NWS values.
T = Trace of Precipitation, MM = Missing Value Source: NWS Daily Summary

Daily Weather History Graph

Daily Weather History Graph

Search for Another Location

Airport or City:

Trip Planner

Search our weather history database for the weather conditions in past years. The results will help you decide how hot, cold, wet, or windy it might be!

Date:

Astronomy

May. 28, 2013 Rise Set
Actual Time 5:47 AM CDT 8:57 PM CDT
Civil Twilight 5:12 AM CDT 9:32 PM CDT
Nautical Twilight 4:27 AM CDT 10:18 PM CDT
Astronomical Twilight 3:33 AM CDT 11:13 PM CDT
Moon No Moon Rise 9:40 AM CDT (5/28)
Length of Visible Light 16h 20m
Length of Day
15h 10m
Waning Gibbous, 82% of the Moon is Illuminated
May 28
Waning Gibbous
May 31
Last Quarter
Jun 8
New
Jun 16
First Quarter
Jun 23
Full

Hourly Weather History & Observations

Time (CDT) Temp. Dew Point Humidity Pressure Visibility Wind Dir Wind Speed Gust Speed Precip Events Conditions
12:13 AM 55.4 °F 53.6 °F 94% 29.75 in 1.8 mi ESE 12.7 mph 16.1 mph N/A   Overcast
12:33 AM 55.4 °F 53.6 °F 94% 29.76 in 2.0 mi ESE 12.7 mph 16.1 mph N/A   Overcast
12:53 AM 55.4 °F 53.6 °F 94% 29.75 in 0.8 mi ESE 11.5 mph 17.3 mph N/A   Overcast
1:13 AM 55.4 °F 53.6 °F 94% 29.77 in 0.8 mi ESE 6.9 mph - N/A   Overcast
1:33 AM 55.4 °F 53.6 °F 94% 29.74 in 0.5 mi East 10.4 mph - N/A Fog Fog
1:53 AM 55.4 °F 53.6 °F 94% 29.74 in 0.5 mi East 9.2 mph 16.1 mph N/A Fog Fog
2:13 AM 55.4 °F 53.6 °F 94% 29.74 in 0.5 mi ESE 9.2 mph - N/A Fog Fog
2:33 AM 55.4 °F 53.6 °F 94% 29.75 in 0.5 mi SE 6.9 mph - N/A Fog Fog
2:53 AM 55.4 °F 53.6 °F 94% 29.75 in 0.5 mi ESE 3.5 mph - N/A Fog Fog
3:13 AM 55.4 °F 53.6 °F 94% 29.75 in 0.5 mi Calm Calm - N/A Fog Fog
3:33 AM 55.4 °F 53.6 °F 94% 29.76 in 0.5 mi Calm Calm - N/A Fog Fog
3:54 AM 55.4 °F 53.6 °F 94% 29.75 in 0.8 mi Calm Calm - N/A   Overcast
4:13 AM 55.4 °F 53.6 °F 94% 29.75 in 0.8 mi Calm Calm - N/A   Overcast
4:33 AM 55.4 °F 53.6 °F 94% 29.74 in 0.8 mi NNE 3.5 mph - N/A   Overcast
4:54 AM 55.4 °F 53.6 °F 94% 29.72 in 1.0 mi NNE 3.5 mph - N/A   Overcast
5:13 AM 55.4 °F 53.6 °F 94% 29.70 in 1.0 mi NE 4.6 mph - N/A   Overcast
5:33 AM 55.4 °F 53.6 °F 94% 29.70 in 1.0 mi ENE 5.8 mph - N/A   Overcast
5:53 AM 55.4 °F 53.6 °F 94% 29.71 in 1.2 mi East 3.5 mph - N/A   Overcast
6:13 AM 55.4 °F 53.6 °F 94% 29.70 in 0.2 mi East 6.9 mph - N/A Fog Fog
6:33 AM 55.4 °F 53.6 °F 94% 29.69 in 0.2 mi East 9.2 mph - N/A Fog Fog
6:53 AM 55.4 °F 53.6 °F 94% 29.69 in 0.2 mi East 9.2 mph - N/A Fog Fog
7:13 AM 55.4 °F 53.6 °F 94% 29.68 in 0.8 mi ESE 11.5 mph - N/A   Overcast
7:34 AM 55.4 °F 53.6 °F 94% 29.68 in 0.8 mi ESE 9.2 mph - N/A   Overcast
7:53 AM 55.4 °F 53.6 °F 94% 29.68 in 0.8 mi ESE 6.9 mph - N/A   Overcast
8:13 AM 55.4 °F 53.6 °F 94% 29.68 in 0.8 mi East 8.1 mph - N/A   Overcast
8:33 AM 55.4 °F 53.6 °F 94% 29.68 in 1.2 mi ESE 8.1 mph - N/A   Overcast
8:53 AM 55.4 °F 53.6 °F 94% 29.69 in 4.0 mi ESE 8.1 mph - N/A   Overcast
9:13 AM 55.4 °F 55.4 °F 100% 29.73 in 3.0 mi SSW 3.5 mph - N/A   Overcast
9:33 AM 55.4 °F 55.4 °F 100% 29.73 in 2.0 mi SW 4.6 mph - N/A   Overcast
9:54 AM 55.4 °F 55.4 °F 100% 29.73 in 3.0 mi West 4.6 mph - N/A   Overcast
10:13 AM 55.4 °F 55.4 °F 100% 29.73 in 4.0 mi WNW 4.6 mph - N/A   Overcast
10:33 AM 55.4 °F 55.4 °F 100% 29.73 in 2.5 mi WNW 6.9 mph - N/A   Overcast
10:53 AM 55.4 °F 55.4 °F 100% 29.73 in 7.0 mi WNW 6.9 mph - N/A   Overcast
11:13 AM 57.2 °F 55.4 °F 94% 29.73 in 10.0 mi North 4.6 mph - N/A   Overcast
11:33 AM 57.2 °F 55.4 °F 94% 29.74 in 10.0 mi Calm Calm - N/A   Light Drizzle
11:53 AM 57.2 °F 55.4 °F 94% 29.74 in 7.0 mi NNW 5.8 mph 9.2 mph N/A Rain Light Rain
12:13 PM 57.2 °F 55.4 °F 94% 29.76 in 10.0 mi West 6.9 mph - N/A   Light Drizzle
12:33 PM 57.2 °F 55.4 °F 94% 29.76 in 10.0 mi NW 4.6 mph - N/A   Overcast
12:54 PM 59.0 °F 55.4 °F 88% 29.75 in 10.0 mi NNW 5.8 mph - N/A   Overcast
1:13 PM 59.0 °F 55.4 °F 88% 29.75 in 10.0 mi NW 6.9 mph - N/A   Overcast
1:33 PM 59.0 °F 55.4 °F 88% 29.74 in 10.0 mi NNW 5.8 mph - N/A   Overcast
1:54 PM 60.8 °F 55.4 °F 82% 29.75 in 10.0 mi Calm Calm - N/A   Overcast
2:13 PM 60.8 °F 55.4 °F 82% 29.74 in 10.0 mi WNW 4.6 mph - N/A   Overcast
2:33 PM 62.6 °F 55.4 °F 77% 29.74 in 10.0 mi Calm Calm - N/A   Overcast
2:53 PM 62.6 °F 55.4 °F 77% 29.74 in 10.0 mi WNW 4.6 mph - N/A   Overcast
3:13 PM 64.4 °F 55.4 °F 73% 29.73 in 10.0 mi NNW 3.5 mph - N/A   Mostly Cloudy
3:33 PM 64.4 °F 55.4 °F 73% 29.73 in 10.0 mi North 3.5 mph - N/A   Mostly Cloudy
3:53 PM 64.4 °F 57.2 °F 77% 29.74 in 10.0 mi North 4.6 mph - N/A   Scattered Clouds
4:13 PM 64.4 °F 57.2 °F 77% 29.75 in 10.0 mi NW 3.5 mph - N/A   Scattered Clouds
4:33 PM 66.2 °F 57.2 °F 73% 29.75 in 10.0 mi Calm Calm - N/A   Scattered Clouds
4:53 PM 66.2 °F 57.2 °F 73% 29.75 in 10.0 mi WSW 3.5 mph - N/A   Scattered Clouds
5:13 PM 66.2 °F 57.2 °F 73% 29.75 in 10.0 mi Calm Calm - N/A   Scattered Clouds
5:33 PM 68.0 °F 59.0 °F 73% 29.75 in 10.0 mi Calm Calm - N/A   Scattered Clouds
5:53 PM 66.2 °F 57.2 °F 73% 29.75 in 10.0 mi SSW 4.6 mph - N/A   Scattered Clouds
6:13 PM 68.0 °F 59.0 °F 73% 29.74 in 10.0 mi SSE 3.5 mph - N/A   Mostly Cloudy
6:33 PM 68.0 °F 57.2 °F 68% 29.74 in 10.0 mi Calm Calm - N/A   Scattered Clouds
6:53 PM 68.0 °F 57.2 °F 68% 29.73 in 10.0 mi Calm Calm - N/A   Clear
7:13 PM 68.0 °F 57.2 °F 68% 29.72 in 10.0 mi Calm Calm - N/A   Clear
7:33 PM 68.0 °F 57.2 °F 68% 29.71 in 10.0 mi Calm Calm - N/A   Clear
7:53 PM 68.0 °F 57.2 °F 68% 29.70 in 10.0 mi Calm Calm - N/A   Clear
8:13 PM 66.2 °F 57.2 °F 73% 29.71 in 10.0 mi Calm Calm - N/A   Clear
8:33 PM 66.2 °F 57.2 °F 73% 29.71 in 10.0 mi SSE 4.6 mph - N/A   Clear
8:53 PM 64.4 °F 57.2 °F 77% 29.73 in 10.0 mi SSE 6.9 mph - N/A   Clear
9:13 PM 64.4 °F 57.2 °F 77% 29.73 in 10.0 mi SSE 4.6 mph - N/A   Clear
9:33 PM 62.6 °F 57.2 °F 82% 29.71 in 10.0 mi ESE 4.6 mph - N/A   Clear
9:53 PM 60.8 °F 57.2 °F 88% 29.72 in 10.0 mi ESE 4.6 mph - N/A   Clear
10:14 PM 60.8 °F 57.2 °F 88% 29.76 in 10.0 mi SSE 8.1 mph - N/A   Clear
10:33 PM 62.6 °F 57.2 °F 82% 29.76 in 10.0 mi SSE 5.8 mph - N/A   Clear
10:53 PM 60.8 °F 57.2 °F 88% 29.77 in 10.0 mi SSE 8.1 mph - N/A   Clear
11:13 PM 60.8 °F 57.2 °F 88% 29.77 in 10.0 mi SSE 5.8 mph - N/A   Clear
11:33 PM 60.8 °F 55.4 °F 82% 29.78 in 10.0 mi SE 3.5 mph - N/A   Clear
11:53 PM 59.0 °F 55.4 °F 88% 29.78 in 10.0 mi SSE 5.8 mph - N/A   Clear